Location: Namasale
(1.5000°N, 32.6167°E)
Time: 21:59:14
(UTC+00:00)

Transit 2A - Pass Details

Date: 23 April 2021
Orbit: 602 x 957 km, 66.7° (Epoch: 11 May)

Event Time Altitude Azimuth Distance (km) Brightness Sun altitude
Rises 15:03:18 0° 322° (NW) 3,081 10.0 11.2°
Reaches altitude 10° 15:05:43 10° 313° (NW) 2,220 9.6 10.6°
Maximum altitude 15:10:17 34° 249° (WSW) 1,273 8.1 9.5°
Drops below altitude 10° 15:15:19 10° 185° (S) 2,445 8.6 8.3°
Sets 15:18:07 0° 176° (S) 3,440 9.2 7.6°
